WetterOnline ( https://www.wetteronline.ch )

Wetter aktuell Mühldorf

Aktuelles Wetter: Mühldorf am Inn (410m)

6-stündlich | Neueste Meldungen
Ortszeit Temperatur Wetter
Sa, 24.08. 20:00 23.2° C wolkig
Sa, 24.08. 14:00 25.5° C leicht bewölkt
Sa, 24.08. 8:00 15.4° C leicht bewölkt
Sa, 24.08. 2:00 18.3° C bewölkt
Fr, 23.08. 20:00 21.5° C bedeckt
Fr, 23.08. 14:00 21.8° C bedeckt
Fr, 23.08. 8:00 13.8° C bedeckt
Fr, 23.08. 2:00 11.2° C Nebel
Ortszeit Temperatur Wetter
So, 25.08. 0:00 18.8° C wolkig
Sa, 24.08. 23:50 18.8° C wolkig
Sa, 24.08. 23:40 19.2° C wolkig
Sa, 24.08. 23:30 20.5° C bedeckt
Sa, 24.08. 23:20 20.5° C bedeckt
Sa, 24.08. 23:10 20.5° C bedeckt
Sa, 24.08. 23:00 20.7° C bewölkt
Sa, 24.08. 22:30 21.7° C wolkig
Sa, 24.08. 22:00 21.2° C bewölkt
Sa, 24.08. 21:30 20.8° C wolkig
Sa, 24.08. 21:00 20.8° C wolkig
Ortszeit Relative Feuchte Sichtweite
Sa, 24.08. 20:00 81% 9 km
Sa, 24.08. 14:00 54% 20 km
Sa, 24.08. 8:00 94% 5.0 km
Sa, 24.08. 2:00 82% 20 km
Fr, 23.08. 20:00 76% 20 km
Fr, 23.08. 14:00 65% 20 km
Fr, 23.08. 8:00 96% 5.0 km
Fr, 23.08. 2:00 100% <100 m
Ortszeit Relative Feuchte Sichtweite
So, 25.08. 0:00 90% 10 km
Sa, 24.08. 23:50 90% -
Sa, 24.08. 23:40 90% -
Sa, 24.08. 23:30 85% 14 km
Sa, 24.08. 23:20 85% -
Sa, 24.08. 23:10 84% -
Sa, 24.08. 23:00 85% 14 km
Sa, 24.08. 22:30 81% 14 km
Sa, 24.08. 22:00 87% 10 km
Sa, 24.08. 21:30 89% 9 km
Sa, 24.08. 21:00 87% 10 km
Ortszeit Niederschlagsmenge Niederschlagsart
Sa, 24.08. 20:00 0.0 l/m2 in 12 Std. -
Sa, 24.08. 14:00 0.0 l/m2 in 6 Std. -
Sa, 24.08. 8:00 0.0 l/m2 in 12 Std. -
Sa, 24.08. 2:00 0.0 l/m2 in 6 Std. -
Fr, 23.08. 20:00 0.0 l/m2 in 12 Std. -
Fr, 23.08. 14:00 0.0 l/m2 in 6 Std. -
Fr, 23.08. 8:00 0.0 l/m2 in 12 Std. -
Fr, 23.08. 2:00 0.0 l/m2 in 6 Std. -
Ortszeit Niederschlagsmenge Niederschlagsart
So, 25.08. 0:00 0.0 l/m2 in 1 Std. -
Sa, 24.08. 23:50 keine Meldung -
Sa, 24.08. 23:40 keine Meldung -
Sa, 24.08. 23:30 0.0 l/m2 in 1 Std. -
Sa, 24.08. 23:20 keine Meldung -
Sa, 24.08. 23:10 keine Meldung -
Sa, 24.08. 23:00 0.0 l/m2 in 1 Std. -
Sa, 24.08. 22:30 0.0 l/m2 in 1 Std. -
Sa, 24.08. 22:00 0.0 l/m2 in 1 Std. -
Sa, 24.08. 21:30 0.0 l/m2 in 1 Std. -
Sa, 24.08. 21:00 0.0 l/m2 in 1 Std. -
Ortszeit Stärke Spitze Richtung
km/h Bft. km/h Grad Sektor
Sa, 24.08. 20:00 0 0 14 - -
Sa, 24.08. 14:00 6 1 15 50° NO
Sa, 24.08. 8:00 0 0 11 - -
Sa, 24.08. 2:00 6 1 15 90° O
Fr, 23.08. 20:00 4 1 22 50° NO
Fr, 23.08. 14:00 14 3 25 100° O
Fr, 23.08. 8:00 0 0 7 - -
Fr, 23.08. 2:00 0 0 4 - -
Ortszeit Stärke Spitze Richtung
km/h Bft. km/h Grad Sektor
So, 25.08. 0:00 4 1 7 290° W
Sa, 24.08. 23:50 4 1 - 290° W
Sa, 24.08. 23:40 4 1 - 220° SW
Sa, 24.08. 23:30 0 0 7 - -
Sa, 24.08. 23:20 0 0 - 210° SW
Sa, 24.08. 23:10 4 1 - 230° SW
Sa, 24.08. 23:00 4 1 18 300° NW
Sa, 24.08. 22:30 4 1 18 280° W
Sa, 24.08. 22:00 4 1 11 290° W
Sa, 24.08. 21:30 4 1 7 270° W
Sa, 24.08. 21:00 4 1 11 320° NW
Ortszeit Untergrenze Bedeckung Gattung
total tief tief mittel hoch
Sa, 24.08. 20:00 8400 m 8/8 0/8 - - -
Sa, 24.08. 14:00 5700 m 3/8 3/8 - - -
Sa, 24.08. 8:00 10500 m 3/8 0/8 - - -
Sa, 24.08. 2:00 4800 m 8/8 5/8 - - -
Fr, 23.08. 20:00 1110 m 8/8 8/8 - - -
Fr, 23.08. 14:00 840 m 8/8 8/8 - - -
Fr, 23.08. 8:00 1260 m 8/8 8/8 - - -
Fr, 23.08. 2:00 <30 m 7/8 0/8 - - -
Ortszeit Bedeckungsgrad in Achtel und Wolkenuntergrenze
So, 25.08. 0:00 8(7200m)
Sa, 24.08. 23:50 8(7200m)
Sa, 24.08. 23:40 2(6600m) 8(7200m) 8(9000m)
Sa, 24.08. 23:30 8(6600m)
Sa, 24.08. 23:20 8(6600m)
Sa, 24.08. 23:10 8(6600m)
Sa, 24.08. 23:00 7(6900m)
Sa, 24.08. 22:30 2(1440m) 7(7500m) 7(9000m)
Sa, 24.08. 22:00 6(1470m) 8(7800m) 8(9000m)
Sa, 24.08. 21:30 4(1470m) 7(7800m) 7(8700m)
Sa, 24.08. 21:00 1(1500m) 8(7800m) 8(9000m)
Ortszeit Luftdruck NN (hPa) Tendenz (hPa in 3 Std.)
Sa, 24.08. 20:00 1017 - 0,1
Sa, 24.08. 14:00 1018 - 1,1
Sa, 24.08. 8:00 1021 - 0,1
Sa, 24.08. 2:00 1021 - 1,2
Fr, 23.08. 20:00 1022 - 0,5
Fr, 23.08. 14:00 1024 - 0,9
Fr, 23.08. 8:00 1026 + 0,2
Fr, 23.08. 2:00 1027 - 0,3
Ortszeit Luftdruck NN (hPa) Tendenz (hPa in 3 Std.)
So, 25.08. 0:00 1018 - 0,2
Sa, 24.08. 23:50 1018 keine Meldung
Sa, 24.08. 23:40 1018 keine Meldung
Sa, 24.08. 23:30 1018 + 0,2
Sa, 24.08. 23:20 1018 keine Meldung
Sa, 24.08. 23:10 1018 keine Meldung
Sa, 24.08. 23:00 1018 + 0,6
Sa, 24.08. 22:30 1018 + 0,6
Sa, 24.08. 22:00 1018 + 0,5
Sa, 24.08. 21:30 1018 + 0,3
Sa, 24.08. 21:00 1018 + 0,3
Ortszeit Schneehöhe (cm)
Sa, 24.08. 20:00 -
Sa, 24.08. 14:00 -
Sa, 24.08. 8:00 -
Sa, 24.08. 2:00 -
Fr, 23.08. 20:00 -
Fr, 23.08. 14:00 -
Fr, 23.08. 8:00 -
Fr, 23.08. 2:00 -
Ortszeit Schneehöhe (cm)
So, 25.08. 0:00 -
Sa, 24.08. 23:50 -
Sa, 24.08. 23:40 -
Sa, 24.08. 23:30 -
Sa, 24.08. 23:20 -
Sa, 24.08. 23:10 -
Sa, 24.08. 23:00 -
Sa, 24.08. 22:30 -
Sa, 24.08. 22:00 -
Sa, 24.08. 21:30 -
Sa, 24.08. 21:00 -
Link zu dieser Seite / Seite empfehlen

Das Wetter in ...